GFSNE_sfc_thetae_000.txt.gz
Theta_e
278 279 279 279 280 280 280 280 278 274 275 279 279 283 284 285 287 287 289 290 292 294 296 300 302 306 309 309 309 311 314 317 323 327 329 329 328 327
278 277 277 277 277 278 278 279 279 277 274 278 279 280 282 283 285 285 285 288 290 292 294 296 301 303 304 307 309 310 312 314 319 326 328 328 327 326
274 274 274 275 274 274 274 275 274 275 273 275 277 278 278 279 281 282 283 283 284 288 289 292 296 297 300 303 306 308 310 312 314 323 326 327 326 325
272 272 272 273 271 271 271 271 271 272 271 269 272 273 274 276 277 278 280 281 281 284 286 290 294 298 298 300 303 305 307 308 310 318 323 324 324 324
271 270 270 271 270 270 271 270 271 272 271 269 269 272 272 274 274 275 276 277 280 283 286 288 292 294 296 298 302 304 303 304 308 313 318 320 321 322
271 271 271 271 271 270 270 270 270 269 269 269 269 270 271 273 274 273 274 277 278 283 286 290 292 293 296 300 301 300 302 303 307 311 314 316 317 318
272 272 272 272 274 275 273 272 272 271 270 269 269 269 270 271 272 274 274 275 277 280 283 286 289 295 297 298 297 298 301 302 305 310 311 313 314 315
270 271 272 272 273 275 276 277 276 272 271 271 272 271 271 272 274 273 273 274 273 281 281 281 287 292 293 294 299 300 302 302 305 310 310 312 312 313
271 271 271 273 273 273 275 276 276 277 277 274 271 272 272 275 275 275 275 275 275 278 279 278 282 284 290 292 296 298 300 303 304 309 310 311 312 312
272 272 273 273 274 275 274 273 273 274 275 275 274 274 274 276 276 276 275 275 277 277 279 275 279 284 288 290 295 297 299 299 301 305 310 311 310 310
273 274 274 273 275 277 274 272 272 273 276 278 278 279 280 281 280 277 275 273 272 274 278 279 281 284 287 287 290 296 299 299 300 302 309 310 310 309
272 273 274 274 275 277 274 272 270 271 273 272 274 275 277 277 279 279 278 275 276 275 278 277 282 285 282 285 288 291 295 299 300 303 309 309 308 312
271 271 271 274 276 276 276 271 271 274 274 272 274 275 275 276 276 277 278 277 276 275 279 279 279 282 284 284 286 288 289 293 304 307 309 309 308 313
270 271 271 276 274 274 272 274 274 274 268 269 270 271 274 276 277 278 279 280 280 279 280 281 279 282 282 283 282 287 288 288 305 309 312 310 308 310
272 273 274 272 272 270 271 272 270 267 267 266 267 269 272 275 278 279 280 281 280 280 282 282 280 284 284 283 283 284 285 287 305 310 311 310 309 313
272 267 268 269 269 269 267 268 268 267 267 267 267 269 270 271 272 275 278 281 279 281 282 283 284 285 283 284 285 284 286 284 291 309 310 309 311 312
264 261 261 262 263 264 264 265 266 266 267 267 267 267 268 270 271 273 275 280 279 279 281 283 285 286 287 285 284 285 285 286 290 302 307 306 309 310
256 255 260 261 261 262 262 263 265 265 266 267 267 267 267 268 268 269 271 272 279 280 280 283 285 284 285 286 287 285 286 287 291 305 307 305 306 309
251 257 258 260 260 262 262 263 263 265 267 267 266 266 268 267 266 266 268 270 273 279 282 284 284 284 281 280 287 290 287 290 297 304 306 306 306 307
251 256 257 259 260 261 262 262 263 264 266 266 266 267 266 265 264 264 265 267 269 274 280 284 285 285 284 283 285 290 289 292 298 303 304 307 307 304
251 255 257 258 259 260 261 262 263 263 266 266 267 266 265 264 263 264 264 266 267 269 272 278 286 287 288 288 287 289 294 291 300 305 305 304 304 304
251 254 256 257 258 259 260 262 263 263 266 267 266 265 265 264 264 263 264 264 265 268 270 278 284 288 287 286 287 290 294 298 292 298 302 304 304 300
252 254 255 256 258 259 260 261 262 263 266 267 266 265 264 264 264 265 265 265 265 267 269 272 280 286 286 289 290 293 293 295 301 301 303 296 295 297

GFSNE_sfc_thetae_003.txt.gz
Theta_e
279 279 279 279 280 280 280 279 277 273 274 277 278 282 283 283 284 284 284 288 290 291 292 293 293 294 297 299 301 304 307 312 313 313 314 317 322 329
278 277 277 277 277 277 278 277 277 275 272 277 278 279 279 279 280 280 280 283 285 287 289 290 291 292 293 295 297 300 304 306 311 313 313 315 318 326
275 275 275 275 274 274 274 274 274 274 271 273 276 276 275 274 276 277 278 278 280 283 286 287 288 289 291 292 294 295 298 302 308 311 312 313 315 320
273 273 272 273 271 272 271 271 271 272 270 268 271 272 272 273 273 274 275 277 277 281 283 285 286 287 288 290 290 292 296 301 301 303 308 311 313 316
271 271 270 270 270 270 270 270 270 271 271 269 268 271 271 272 272 273 274 275 277 280 283 284 286 288 289 290 292 293 294 296 300 301 303 307 310 313
271 271 271 271 270 269 270 269 270 269 269 269 268 269 270 272 272 271 271 274 275 278 281 282 284 285 288 290 293 294 294 295 296 298 302 303 306 308
271 271 272 272 273 274 272 272 271 270 270 270 270 271 271 272 272 273 272 273 275 277 277 278 281 284 284 286 289 292 295 296 297 300 301 303 304 305
271 272 272 272 273 275 276 277 276 273 272 271 272 272 272 273 273 273 273 273 271 278 277 277 280 280 282 284 287 289 292 298 298 300 301 302 302 303
272 271 271 273 273 273 275 277 277 277 277 275 272 273 273 274 274 273 273 272 272 276 277 274 277 277 281 283 287 289 292 296 297 298 300 300 301 301
272 272 272 273 274 274 273 273 274 274 275 275 274 274 274 276 275 274 273 273 274 276 277 272 276 276 280 282 286 289 294 296 296 297 298 301 302 302
273 273 273 273 275 277 274 273 273 273 277 278 278 279 280 280 280 277 275 272 271 273 277 275 276 276 279 280 283 287 292 295 295 296 298 301 301 302
272 273 275 274 276 277 275 273 270 270 271 272 274 274 274 274 277 275 275 273 273 272 277 276 277 278 275 279 280 285 290 293 293 293 297 299 301 305
271 271 273 275 276 278 277 272 270 274 272 267 267 269 270 271 273 276 277 275 273 272 277 277 275 276 276 276 278 281 285 289 291 292 292 298 300 302
267 272 271 275 275 275 273 273 275 273 266 266 265 266 268 269 271 273 275 277 278 277 279 278 276 277 276 275 275 280 283 287 288 288 290 294 300 301
272 272 273 273 272 270 271 272 270 266 266 264 264 266 269 270 271 271 272 274 275 277 280 280 279 278 278 276 276 279 282 286 287 287 288 291 303 304
270 265 268 268 268 268 266 267 266 266 266 265 265 267 269 269 268 270 269 271 271 272 278 281 281 280 278 277 278 277 281 282 286 287 287 288 292 307
258 256 257 261 262 263 263 264 265 265 265 265 265 265 267 268 267 269 269 269 267 268 271 276 283 282 281 280 278 281 282 283 286 286 286 286 289 307
256 252 255 259 260 261 261 262 263 264 264 265 265 266 266 266 267 268 267 266 266 267 269 273 278 282 281 281 283 281 282 284 285 286 286 285 287 302
252 250 253 256 258 260 260 261 261 263 264 264 264 265 267 267 266 265 265 265 264 265 267 270 274 279 279 277 282 286 282 284 285 285 286 286 288 291
248 247 248 251 256 257 258 259 260 261 262 263 263 265 267 267 265 264 264 263 263 264 264 266 269 273 277 280 281 284 287 286 286 285 287 289 292 297
247 246 248 251 255 256 257 258 259 260 261 262 263 264 267 266 264 264 264 264 264 263 263 264 268 273 276 277 281 283 286 287 288 288 289 290 296 303
249 246 249 249 251 253 255 257 258 259 260 262 263 266 267 266 264 264 264 263 263 264 264 266 268 270 271 274 277 283 284 287 289 288 288 290 301 300
246 246 248 247 251 253 254 256 257 259 260 263 263 266 266 264 265 265 264 264 264 263 264 264 266 269 270 273 277 282 285 286 287 289 292 290 289 296

GFSNE_sfc_thetae_006.txt.gz
Theta_e
278 278 278 278 279 279 279 278 276 272 274 276 277 280 279 279 280 279 278 280 284 285 286 287 288 290 292 294 295 297 299 300 302 303 306 309 314 315
278 277 277 277 277 277 277 277 276 272 270 275 275 276 277 277 277 277 277 279 280 281 283 284 286 287 289 291 293 294 296 297 298 301 303 307 310 312
275 275 275 275 274 274 274 274 273 273 269 273 275 275 274 274 275 275 275 275 275 279 281 283 284 285 287 288 289 291 292 294 296 298 300 302 306 308
274 273 273 274 273 273 272 271 272 272 270 268 271 272 272 273 273 273 274 276 275 278 281 282 284 285 286 287 289 290 290 291 293 293 295 298 301 305
273 273 272 272 271 271 271 270 271 271 271 269 269 271 272 273 272 273 274 275 276 279 281 281 282 284 285 286 287 288 288 290 291 293 294 294 296 303
272 272 272 271 272 271 270 270 270 269 269 269 269 269 271 273 274 273 273 275 276 278 279 280 281 282 284 285 286 287 289 289 289 292 295 295 295 299
271 272 272 273 274 273 271 270 270 268 269 269 269 271 272 273 273 274 273 273 274 276 276 277 278 279 280 283 283 285 286 287 288 290 292 295 295 295
271 272 273 272 274 276 277 277 276 272 271 271 272 272 272 273 274 274 273 272 270 276 274 274 277 276 278 280 283 284 285 286 287 289 292 293 295 296
272 272 272 273 273 273 275 276 277 278 278 275 273 273 273 274 274 273 273 272 271 274 275 272 275 274 277 279 283 284 285 286 287 289 292 293 295 295
272 272 272 272 273 273 273 273 273 274 275 276 275 275 276 276 276 276 275 275 276 276 276 271 275 274 276 278 282 283 285 286 287 289 290 292 295 297
273 273 273 273 274 276 274 272 273 274 278 279 279 279 279 279 278 273 270 269 268 270 274 273 274 275 276 277 279 283 285 286 287 288 289 291 294 295
272 273 275 274 276 277 274 273 272 273 272 271 274 271 273 271 274 272 270 267 267 267 274 273 274 274 272 276 278 280 281 284 286 286 289 292 295 294
270 270 273 275 276 277 278 273 272 273 273 268 267 267 268 269 270 271 272 270 268 268 273 273 273 274 273 273 276 278 279 280 281 282 286 289 294 293
270 272 272 274 276 277 275 274 275 274 264 264 264 265 266 267 269 271 271 271 272 271 272 272 270 271 272 273 273 277 278 279 280 280 283 286 290 293
272 273 274 273 273 271 271 272 271 265 264 263 263 265 267 269 269 269 271 271 271 271 273 273 273 274 274 272 273 275 276 278 280 279 281 284 287 288
272 266 268 268 268 269 266 267 266 265 265 264 264 266 267 267 266 268 268 268 268 268 271 273 272 272 270 272 275 275 277 276 279 280 280 284 286 288
259 257 259 262 262 263 263 263 264 264 264 264 264 264 265 266 266 268 268 268 266 265 265 268 271 272 272 272 272 276 277 277 279 279 279 280 284 286
256 254 257 260 260 261 260 261 262 263 263 264 263 263 264 264 264 266 268 267 265 265 265 266 267 267 268 270 276 275 279 278 279 279 280 281 282 285
255 253 254 257 258 259 259 260 260 261 263 262 263 262 263 263 264 265 267 266 265 265 265 266 265 264 262 261 269 278 279 280 280 280 282 282 282 284
253 251 252 253 255 257 257 258 258 259 260 261 261 261 262 263 263 265 266 264 264 264 264 265 265 265 263 262 264 270 277 279 280 280 281 284 286 288
252 253 252 253 254 254 254 254 254 256 258 258 259 260 262 262 264 265 265 265 265 264 262 263 266 269 268 268 265 266 270 278 281 282 284 284 283 284
255 252 252 250 250 250 250 250 253 255 256 258 259 261 262 263 265 265 265 264 264 264 263 265 267 266 266 265 263 265 268 273 280 285 286 287 285 283
254 252 250 249 249 248 248 248 251 255 256 258 259 261 262 264 265 265 264 264 264 263 264 263 264 265 265 265 265 266 268 271 276 280 285 287 287 287

GFSNE_sfc_thetae_009.txt.gz
Theta_e
278 278 278 278 279 279 279 278 276 272 273 275 276 280 278 278 278 278 277 279 283 284 284 285 286 288 289 290 291 293 295 297 297 298 299 300 302 304
278 278 278 278 278 278 278 277 277 273 270 275 276 276 276 276 277 277 276 279 279 281 283 284 285 286 287 289 290 291 293 294 295 296 298 299 300 301
277 277 276 276 275 274 275 275 274 274 270 273 275 275 274 274 275 275 276 275 276 279 281 283 284 285 286 287 288 289 291 292 293 294 295 296 297 299
275 275 274 275 273 273 273 272 272 272 271 269 272 273 272 273 274 273 275 276 276 279 282 284 284 285 285 286 286 287 288 290 291 292 293 295 296 297
275 274 273 273 271 271 271 270 271 272 271 270 269 272 272 273 273 275 275 276 278 280 282 282 283 283 284 285 286 286 286 287 288 289 290 292 293 295
274 273 273 272 272 271 271 271 271 269 269 269 270 271 272 274 275 274 273 276 276 278 279 280 281 282 283 284 284 284 285 286 288 289 290 290 290 291
272 272 272 273 275 274 271 270 269 268 268 268 269 271 272 273 272 274 273 274 274 276 276 276 277 277 278 280 280 282 283 284 285 286 287 288 288 290
271 271 272 273 275 277 277 277 272 267 266 267 271 272 272 273 274 273 273 272 271 276 275 275 277 276 277 278 281 282 283 284 285 286 286 287 288 289
272 272 272 273 273 273 277 278 278 279 279 276 273 273 273 274 274 273 274 273 273 276 274 272 276 275 278 278 282 283 283 284 284 285 286 287 288 290
273 273 273 273 273 273 273 272 273 274 274 275 274 274 275 276 276 276 274 271 271 273 273 268 272 272 274 276 280 282 283 284 284 285 286 287 288 289
273 273 273 273 275 277 273 270 272 274 278 279 280 280 280 280 279 273 267 266 266 268 272 269 270 271 273 274 277 281 283 284 284 285 285 286 288 289
273 273 275 274 276 277 274 268 267 272 274 270 273 274 274 273 274 272 268 265 265 265 272 269 269 270 267 271 273 277 278 281 283 284 285 285 286 285
271 272 273 277 277 278 278 273 273 273 270 265 267 267 268 269 269 270 270 269 267 266 271 271 269 269 268 267 270 272 274 277 278 280 283 284 285 285
271 272 273 277 277 277 277 276 276 274 261 259 261 263 265 267 269 270 271 271 271 270 271 271 269 269 267 266 266 270 272 274 277 278 279 282 284 285
272 274 276 277 277 275 273 272 271 264 260 258 261 264 267 268 270 269 270 270 270 270 272 272 271 270 269 267 267 268 270 273 276 276 278 278 279 281
275 275 274 272 271 270 268 268 267 266 265 263 264 266 267 266 266 267 266 267 266 266 270 273 272 271 268 268 267 266 268 267 271 273 277 278 279 281
267 266 264 265 265 265 264 264 264 265 264 264 263 263 264 265 265 266 266 265 264 264 267 269 271 271 270 268 265 267 267 268 270 272 275 276 278 280
265 263 263 263 263 263 262 262 263 263 263 263 262 262 262 263 263 264 264 264 263 265 266 267 267 267 267 267 271 267 267 267 269 271 274 274 277 279
264 263 263 262 262 262 261 260 260 262 262 261 261 261 261 261 261 262 263 263 264 265 266 267 266 265 262 260 265 271 266 267 267 269 273 275 277 279
263 261 260 259 259 259 259 259 259 259 259 260 259 258 258 259 260 261 262 262 263 264 264 266 266 266 263 262 263 266 271 268 267 267 269 274 281 284
260 259 259 258 258 257 256 255 253 253 255 255 253 255 258 259 260 261 262 263 263 263 262 264 267 269 268 267 263 263 267 271 271 268 269 271 272 279
259 258 256 255 255 254 252 250 249 249 253 253 253 256 258 259 260 261 262 263 262 263 263 265 267 267 266 264 262 263 264 267 271 272 274 274 273 273
258 257 255 253 251 250 249 247 248 252 253 251 254 256 258 258 260 261 263 263 262 262 263 263 265 266 265 264 263 263 263 264 266 267 269 274 277 279

GFSNE_sfc_thetae_012.txt.gz
Theta_e
279 279 279 279 279 279 279 278 277 273 274 275 276 279 278 278 278 277 277 279 283 284 285 286 287 288 289 290 291 293 294 295 296 297 298 299 299 300
279 278 278 278 278 279 279 278 277 274 272 275 276 275 276 277 278 277 276 279 279 282 284 285 286 288 289 289 290 291 292 293 294 295 296 297 298 299
278 278 277 278 277 277 277 276 275 275 271 273 275 274 274 274 275 275 276 276 277 281 283 285 286 287 287 288 288 289 290 291 292 292 293 295 296 297
277 277 276 277 275 275 274 274 273 274 272 270 272 272 272 273 274 274 275 277 277 280 283 285 285 285 286 286 287 287 288 288 289 290 291 292 293 294
277 276 275 275 273 273 272 272 272 273 272 270 270 272 272 273 273 274 275 276 278 280 282 282 283 284 284 285 286 286 286 286 287 287 288 289 291 292
276 276 275 274 274 272 272 271 271 270 270 270 270 270 272 274 274 274 274 276 275 278 279 280 281 282 283 284 284 283 283 284 285 286 286 287 288 290
275 275 274 275 277 275 272 271 270 268 268 268 270 271 272 273 273 274 273 274 275 276 277 277 278 278 279 281 281 282 283 284 285 285 286 286 287 288
273 273 273 275 277 279 278 276 273 267 262 265 271 272 273 273 274 273 273 273 271 276 275 273 275 275 276 277 280 282 284 284 285 285 286 286 287 287
274 273 273 274 274 276 279 278 277 278 274 272 272 273 273 274 274 274 274 274 273 274 272 270 273 272 275 276 279 281 282 282 283 284 285 286 286 287
274 274 273 273 274 274 275 276 276 276 276 276 274 274 274 275 276 276 274 270 271 272 273 268 272 271 273 274 278 280 280 281 282 283 284 285 286 286
274 274 274 273 276 278 273 272 273 274 277 279 279 280 280 280 278 270 264 261 264 268 271 269 270 270 272 272 274 278 279 280 281 281 283 284 285 286
274 274 276 275 278 279 272 271 269 272 273 271 274 275 275 273 274 272 266 259 263 262 272 269 269 269 267 271 273 273 273 276 277 278 279 280 281 281
273 273 274 278 279 280 278 272 271 274 273 268 268 268 269 269 269 270 271 269 265 265 271 271 268 268 267 267 270 272 272 273 273 274 277 278 280 282
273 273 274 279 279 280 279 278 278 273 264 263 261 263 266 267 268 270 271 271 271 270 272 271 268 268 266 266 266 271 272 272 272 272 273 276 279 280
274 275 277 279 279 280 281 280 274 267 263 262 261 264 267 268 269 269 269 269 269 270 271 271 269 269 269 267 267 269 270 270 271 270 270 271 272 273
276 275 276 278 279 273 275 275 269 267 265 263 264 266 267 267 266 267 266 266 265 265 269 270 270 270 268 269 269 267 269 267 270 270 270 270 271 273
274 274 274 271 270 268 267 267 267 266 265 264 264 264 264 264 265 266 265 264 262 262 264 267 269 271 271 270 267 267 267 268 269 269 269 268 270 271
272 271 269 268 267 266 265 264 265 265 265 264 263 263 262 262 263 264 264 262 261 262 263 264 266 266 266 268 272 267 268 268 269 269 269 267 267 270
270 269 267 266 266 266 265 264 264 264 264 263 263 262 262 261 261 261 261 262 261 262 263 264 264 263 261 260 267 273 268 268 268 267 268 268 267 268
269 267 266 265 265 264 263 263 263 262 262 261 261 260 258 257 257 258 260 260 260 261 262 264 264 263 263 262 263 266 272 269 268 267 267 269 270 273
267 266 265 264 263 262 262 261 260 258 257 257 256 254 254 254 256 258 259 261 261 261 261 262 264 267 266 266 263 264 267 272 271 269 268 267 266 267
266 263 262 262 261 260 258 257 256 255 254 254 254 254 255 254 257 258 259 259 260 262 262 264 265 264 264 263 262 263 265 267 270 271 272 271 266 263
263 262 260 259 258 257 255 255 254 255 254 253 252 251 252 254 256 258 259 260 261 262 262 261 262 263 263 263 263 263 264 265 266 265 266 270 271 272

GFSNE_sfc_thetae_015.txt.gz
Theta_e
285 284 284 284 285 284 284 285 285 280 279 281 281 283 282 282 281 281 280 279 283 284 285 286 288 289 291 292 292 293 294 295 295 296 297 298 299 300
284 283 283 283 283 283 284 283 282 283 281 280 281 282 281 279 280 280 279 280 279 282 284 285 287 288 289 290 290 291 292 293 294 294 295 296 297 297
282 282 282 282 282 282 282 282 281 280 281 277 279 279 278 278 278 279 279 279 280 281 283 285 286 286 287 288 289 289 290 291 291 292 292 293 294 295
281 281 280 280 281 281 281 280 280 279 278 278 276 276 276 277 277 277 278 279 280 281 283 285 285 285 286 286 287 288 288 288 288 289 290 291 292 293
281 280 280 280 279 279 279 278 278 277 277 276 275 276 276 277 277 278 278 279 279 281 282 282 283 284 285 286 286 286 286 286 287 287 288 288 289 290
281 281 280 279 279 278 278 278 277 276 275 274 274 274 274 276 276 276 277 278 278 279 280 281 282 282 283 284 284 283 283 284 286 287 287 288 288 289
280 280 280 280 281 280 278 277 276 275 274 273 273 273 274 274 275 277 276 277 278 279 279 280 279 279 279 280 280 281 283 284 285 285 286 286 287 287
278 278 279 279 281 282 281 280 277 273 272 273 273 273 274 276 276 275 275 275 275 280 277 276 277 277 278 279 280 281 283 283 284 284 285 285 286 286
279 278 277 277 279 279 282 281 280 279 277 274 274 275 276 276 276 275 276 276 275 277 274 273 277 276 278 278 280 281 282 283 283 283 283 284 285 285
279 278 277 277 278 278 279 278 278 278 277 276 277 278 278 278 277 278 276 274 273 273 274 271 276 275 277 277 279 281 281 282 282 282 282 282 282 282
278 278 278 276 279 281 278 277 276 276 280 280 280 280 280 280 280 276 272 270 269 271 273 272 273 273 274 275 277 279 280 280 280 280 281 281 281 281
278 277 278 277 280 281 277 276 275 276 276 278 278 279 281 278 277 276 272 268 268 267 273 271 272 272 270 274 276 276 276 277 278 279 280 280 280 278
276 275 276 280 280 282 280 276 276 276 276 275 275 274 273 273 272 273 273 271 268 268 272 272 271 270 270 269 272 274 275 276 276 276 278 279 279 278
276 276 276 280 281 282 280 277 278 276 274 272 271 271 270 270 271 272 272 272 273 271 273 272 270 270 268 267 268 272 274 274 275 276 276 277 278 278
277 278 278 281 281 282 282 278 277 273 271 269 269 270 270 271 271 270 270 270 270 270 271 271 271 270 269 268 267 269 270 273 274 274 275 275 274 274
278 277 278 280 280 280 280 279 274 272 271 270 269 269 270 269 268 269 268 268 267 267 269 270 270 270 269 269 269 268 271 269 272 273 273 273 274 274
276 275 275 277 276 276 275 271 270 269 269 268 267 267 267 267 267 268 267 266 264 265 265 268 269 270 270 269 267 268 269 270 272 272 272 271 273 274
274 273 274 275 272 273 270 269 269 268 268 267 266 266 266 266 266 266 266 264 263 264 264 266 266 266 267 269 271 268 269 270 271 272 271 269 269 272
273 273 273 273 271 271 269 268 267 267 268 267 266 265 265 265 264 264 264 264 263 264 264 265 265 264 262 261 268 272 268 269 269 268 270 270 269 271
274 273 272 272 269 268 268 267 266 266 266 266 265 264 263 262 261 262 262 261 262 262 262 264 264 265 263 263 263 266 270 268 268 268 269 271 272 274
272 272 270 270 269 268 267 266 265 264 264 263 262 261 260 259 259 260 261 261 261 261 261 262 266 268 268 267 263 263 267 271 271 269 269 268 267 268
270 270 269 269 267 266 265 264 263 261 260 260 259 259 259 259 260 259 260 260 261 261 262 263 266 266 265 263 262 262 264 267 269 271 272 271 267 264
269 267 266 265 264 263 261 261 260 260 259 258 258 258 257 257 258 260 260 259 259 260 261 263 264 265 263 263 262 262 263 263 265 265 267 271 272 272

GFSNE_sfc_thetae_021.txt.gz
Theta_e
294 294 294 294 294 294 294 292 290 284 284 287 286 290 290 289 286 283 285 286 286 287 288 288 289 290 291 292 292 293 294 294 295 295 296 296 296 297
293 292 292 292 293 293 292 292 292 291 287 288 287 288 289 287 287 284 284 286 285 286 287 287 288 289 290 290 291 291 292 293 293 293 293 294 295 295
291 291 291 291 291 290 290 290 288 289 291 284 287 288 287 285 283 283 284 282 283 286 286 287 288 289 289 289 289 290 290 291 291 291 291 292 293 294
289 289 289 289 289 289 288 287 287 287 288 282 283 284 284 285 282 280 280 281 283 286 286 287 288 288 288 288 288 289 289 289 289 288 289 290 291 292
289 288 287 288 287 288 287 287 286 283 286 284 281 282 282 283 281 281 281 281 281 284 286 286 287 288 287 288 288 288 287 287 286 287 288 288 289 290
288 288 288 287 287 287 286 286 286 284 284 284 280 280 279 280 280 278 278 280 280 281 283 284 285 286 286 287 287 286 285 285 285 286 287 287 288 288
287 286 287 287 287 288 286 286 285 285 283 282 280 278 278 277 277 279 279 280 280 282 280 281 281 281 282 285 284 284 284 284 285 286 286 287 287 287
284 285 285 285 286 289 290 290 287 285 283 282 281 279 278 278 278 278 279 279 277 283 281 280 281 281 281 281 284 284 284 284 285 285 286 286 286 286
284 284 284 284 284 284 288 289 289 290 289 284 283 281 279 279 279 279 279 279 280 280 281 279 280 278 280 280 284 284 284 284 285 285 285 285 286 285
285 284 283 283 284 283 283 284 285 285 286 286 285 284 282 281 281 281 281 281 280 278 279 275 279 277 279 280 283 284 284 284 284 284 284 285 284 284
285 285 284 284 285 287 282 282 283 284 286 289 287 288 286 285 284 281 278 277 276 276 278 276 277 277 278 277 279 282 284 283 283 283 283 283 284 284
284 284 285 285 286 287 283 282 281 282 282 282 282 284 284 284 285 281 280 277 276 274 277 274 275 276 274 278 279 279 280 281 281 282 282 283 283 279
283 284 284 287 287 287 286 282 282 284 283 281 280 279 280 280 280 280 280 279 276 275 277 276 274 274 272 273 276 277 278 277 277 278 280 281 282 281
282 283 284 287 287 286 286 285 285 285 282 280 277 278 278 278 278 279 279 278 278 276 277 276 273 274 272 271 271 276 276 276 276 276 276 279 280 281
283 284 286 287 286 285 286 286 284 283 279 277 276 277 278 279 279 277 276 276 275 276 276 275 274 274 273 271 271 273 272 275 276 275 274 275 275 275
281 282 284 285 286 283 281 284 282 282 279 278 277 278 278 276 274 274 272 272 271 270 273 274 274 273 271 271 271 270 272 271 275 275 274 274 275 275
279 280 281 281 281 279 279 280 281 281 279 278 278 277 274 273 272 272 271 270 269 269 269 270 272 272 272 272 268 270 270 271 273 273 273 271 273 273
279 277 278 279 278 277 278 278 279 280 278 278 277 274 272 272 270 271 270 269 268 269 269 270 270 269 269 270 273 269 270 270 271 272 272 269 269 272
278 278 277 278 277 277 278 278 278 276 277 275 274 272 271 271 269 269 269 268 268 268 268 269 268 267 264 263 270 276 270 270 270 268 269 269 268 270
279 278 277 277 277 277 278 278 276 274 274 273 272 271 270 269 268 268 268 267 267 267 267 267 267 267 265 263 262 268 273 268 267 267 268 270 271 273
278 277 278 278 278 278 277 275 274 273 272 271 271 270 270 269 268 268 267 267 267 266 265 265 268 270 270 268 262 264 268 272 272 269 268 267 265 266
278 278 278 278 278 275 274 273 271 271 270 270 269 268 268 268 267 266 266 265 265 265 266 267 268 267 266 265 264 265 266 268 270 271 271 270 266 263
278 278 276 275 274 274 271 271 270 269 268 267 266 266 266 265 265 266 265 265 264 265 265 264 266 266 266 265 264 264 264 264 265 264 265 270 271 271

GFSNE_sfc_thetae_024.txt.gz
Theta_e
289 288 288 288 288 289 288 286 285 278 280 281 281 286 288 288 287 285 282 287 290 292 292 292 292 293 293 293 293 293 294 294 294 295 295 295 296 296
288 287 287 287 288 288 288 287 285 284 280 281 282 284 288 288 287 282 281 286 289 290 291 291 291 292 293 293 292 292 292 293 293 293 293 294 294 295
286 285 286 286 288 287 286 286 286 285 282 280 282 283 285 285 284 281 283 282 283 288 290 290 290 291 292 292 291 291 291 291 291 291 291 292 293 294
285 285 285 287 286 284 284 286 288 284 282 278 279 280 282 284 282 280 280 281 280 285 289 289 290 290 291 291 290 290 290 290 289 289 289 290 291 292
286 285 286 284 285 287 284 285 286 285 283 278 278 279 279 282 278 278 278 278 280 284 289 289 289 290 290 290 290 289 288 288 288 287 288 289 289 290
285 285 286 285 285 285 285 285 285 284 285 280 277 278 278 281 280 278 277 279 278 280 283 286 287 288 290 290 289 288 288 287 287 287 287 288 288 288
284 284 285 285 287 287 285 286 285 285 285 283 278 275 277 278 278 279 278 278 278 279 279 280 281 283 285 288 286 287 287 286 286 287 287 287 287 287
283 284 284 284 286 289 290 291 288 285 285 284 283 279 279 279 280 279 279 277 276 280 279 278 280 279 281 282 286 287 286 286 286 286 286 286 286 286
283 284 284 284 284 284 287 290 290 291 290 286 284 282 280 279 279 279 279 280 280 280 280 278 279 279 281 282 286 286 287 286 286 286 286 286 286 285
283 283 283 284 284 283 283 283 284 286 288 288 286 286 284 281 281 281 281 281 278 280 281 276 280 279 279 280 286 287 286 286 286 285 285 284 284 284
282 283 283 283 286 287 284 282 283 283 287 290 290 290 290 288 284 282 279 277 272 275 279 277 277 277 279 279 280 286 285 285 286 285 284 283 283 284
280 281 283 284 286 288 285 284 281 282 283 284 284 287 289 287 286 283 281 278 277 271 277 275 275 275 273 278 278 279 280 284 284 282 282 282 283 279
278 279 281 285 287 288 288 284 283 283 284 284 283 284 284 283 283 283 283 282 279 274 277 278 275 274 272 274 276 278 278 278 278 278 280 280 281 281
277 279 280 284 285 287 287 288 288 286 283 282 281 281 281 281 281 282 281 282 282 280 279 279 275 274 272 272 272 276 277 277 277 277 277 278 280 281
278 281 283 284 285 285 287 288 286 285 282 280 280 280 280 281 281 279 280 277 277 278 279 276 276 276 274 272 272 273 273 275 276 276 277 276 276 276
278 279 281 282 283 283 283 285 286 284 282 281 280 280 280 279 278 278 276 276 274 273 276 276 276 275 273 272 272 272 273 272 274 275 275 276 276 276
273 275 276 275 276 278 280 282 283 283 281 281 280 278 278 278 277 278 276 274 273 270 270 272 274 274 274 273 270 272 272 272 273 273 273 273 274 275
272 271 272 274 274 276 278 280 279 280 281 281 279 278 277 276 274 274 274 273 272 270 269 270 270 269 269 270 273 270 271 271 272 273 273 270 270 273
270 271 271 273 275 275 278 278 277 279 281 280 278 278 276 274 272 271 271 271 270 270 269 269 269 268 265 264 269 275 270 271 271 271 271 270 269 270
269 270 270 272 275 276 276 277 278 278 279 278 277 275 274 272 271 271 270 270 270 269 268 269 269 269 268 267 265 270 275 271 269 268 268 270 271 273
269 270 272 274 276 276 277 277 279 276 276 275 274 273 273 272 271 271 270 270 269 268 267 267 269 272 270 267 264 265 269 272 272 269 269 268 267 267
272 272 274 278 277 277 276 277 275 274 274 273 272 272 271 271 269 269 268 267 267 267 267 268 269 269 267 266 264 265 266 269 271 272 272 271 267 263
272 273 275 277 277 275 275 275 274 273 272 271 270 270 270 269 269 268 268 267 266 266 266 266 267 267 266 266 265 265 265 265 266 265 266 270 270 271

GFSNE_sfc_thetae_027.txt.gz
Theta_e
288 288 289 291 289 288 286 285 287 282 280 281 281 286 287 288 289 289 285 291 294 295 296 295 296 296 296 297 297 297 297 296 296 296 296 295 295 296
286 286 287 289 288 287 289 286 284 288 285 283 282 282 287 288 288 287 284 288 292 293 294 295 295 295 296 296 296 296 296 296 295 294 294 294 294 294
285 285 285 286 288 288 285 286 286 283 287 285 281 282 284 286 285 286 284 284 285 291 293 294 294 294 294 295 295 295 295 295 294 294 293 292 293 293
284 284 285 286 284 286 286 287 287 284 287 286 279 280 282 285 285 283 282 283 282 288 291 293 293 293 293 294 294 294 293 293 293 292 291 292 292 291
284 284 284 284 284 285 286 286 287 287 285 286 283 279 280 282 280 281 280 280 280 285 290 291 292 293 293 293 293 292 292 292 291 290 290 291 291 291
283 284 284 284 284 285 285 285 285 285 284 283 284 278 278 279 282 280 278 279 279 280 284 287 290 291 292 292 293 292 291 290 290 290 289 290 290 290
282 282 283 284 286 287 285 285 285 284 285 284 283 277 277 278 280 280 280 280 279 279 279 281 284 286 287 291 290 291 290 290 290 289 289 289 289 289
281 282 282 282 284 288 289 290 289 285 283 284 284 283 281 282 281 280 280 277 275 279 278 278 282 282 283 285 290 290 290 290 289 289 289 289 288 288
280 281 282 283 282 282 285 288 289 291 291 286 284 285 284 282 281 281 280 280 280 278 279 278 279 279 281 283 289 290 289 289 289 288 289 288 288 287
279 280 280 281 282 282 282 282 283 284 286 287 288 287 287 283 283 283 282 282 281 279 280 277 278 278 280 281 287 289 289 288 288 288 288 288 288 287
276 277 278 279 283 285 282 281 281 282 286 289 290 291 292 291 284 282 281 279 278 276 279 278 278 279 280 280 282 288 288 288 288 288 288 288 286 286
273 275 278 279 282 283 281 281 280 281 282 282 284 287 289 289 290 283 282 279 280 277 279 278 277 277 275 279 280 283 285 289 288 288 288 286 286 281
272 273 275 279 281 282 284 282 282 283 283 282 282 283 285 286 286 286 283 283 281 281 279 280 278 277 276 274 278 280 282 283 283 285 287 286 285 282
270 272 274 278 280 281 282 284 287 287 284 282 281 282 282 283 285 285 284 283 284 284 279 282 278 278 274 272 273 277 278 280 281 280 280 283 283 283
269 271 274 275 278 279 281 285 284 283 283 283 281 280 282 283 284 284 284 283 282 280 280 282 280 278 278 274 273 275 275 277 278 277 277 277 277 278
269 268 270 272 275 276 277 281 282 282 281 282 283 281 282 282 281 282 281 280 278 278 278 281 279 278 277 275 274 274 275 273 276 276 276 276 277 277
269 267 267 269 270 271 276 277 277 279 279 281 283 281 281 280 279 279 279 276 276 274 272 274 277 277 276 274 272 274 273 273 275 275 275 274 275 276
271 269 268 268 268 269 271 274 275 276 278 281 281 281 280 278 278 278 278 276 275 273 272 272 272 271 271 272 274 272 273 273 274 274 273 271 271 274
269 268 267 267 268 270 271 273 275 277 279 280 281 281 279 278 277 277 276 275 274 272 272 271 271 271 267 266 269 276 271 272 272 272 272 271 270 272
269 268 267 267 268 269 271 272 274 277 278 279 280 280 278 278 276 275 274 273 274 271 271 271 271 271 270 269 267 271 275 271 271 270 270 270 271 273
267 268 268 268 268 269 271 272 274 276 277 277 279 278 278 276 274 274 273 273 273 271 268 268 271 273 271 270 267 267 272 275 273 270 270 268 267 267
264 264 266 270 270 272 272 273 275 276 276 277 277 276 275 275 273 273 272 271 271 270 270 270 271 269 269 268 266 266 268 270 273 274 273 271 267 264
263 264 268 271 272 274 277 276 276 275 276 275 274 273 273 272 273 272 271 271 270 269 268 267 268 269 267 267 267 266 266 267 267 266 267 270 271 271

GFSNE_sfc_thetae_030.txt.gz
Theta_e
286 286 287 289 288 288 290 289 288 284 286 281 282 284 287 287 289 289 289 294 299 300 299 299 299 299 300 300 302 302 302 301 301 300 300 300 299 299
285 285 286 287 287 286 287 289 288 288 285 284 282 283 285 287 288 288 289 290 295 298 298 298 298 298 299 299 300 301 301 301 301 300 299 299 299 299
283 283 284 285 286 285 284 286 287 288 286 288 283 282 282 284 284 287 287 286 289 295 297 297 297 297 297 298 299 299 299 300 300 299 298 298 298 298
281 282 282 285 283 284 285 284 284 285 286 286 288 280 281 283 285 284 285 285 286 290 295 295 296 296 296 297 297 298 298 298 298 297 297 297 297 297
280 281 281 282 283 284 284 284 285 286 284 284 285 281 280 280 280 281 283 282 283 287 293 295 295 295 295 296 296 297 296 296 296 295 295 295 295 295
281 281 281 281 281 282 283 284 284 284 284 283 283 284 279 280 282 281 279 281 281 282 286 290 292 293 295 295 295 295 295 295 294 294 293 293 294 294
280 280 281 282 284 284 283 282 283 283 283 283 283 282 279 278 279 280 282 281 281 282 280 282 285 287 289 294 292 293 294 294 293 293 292 291 292 292
277 279 279 281 282 285 286 288 287 283 282 283 283 282 283 281 282 282 281 280 279 281 279 279 282 283 285 287 292 293 294 293 293 292 291 291 291 291
276 277 278 279 280 280 283 285 285 287 289 285 283 283 283 284 282 281 281 282 282 279 281 279 281 280 283 285 290 293 293 293 293 292 291 291 291 290
275 275 275 275 277 278 279 279 281 281 282 284 285 286 287 286 285 283 283 282 283 280 281 279 281 278 281 283 289 291 293 293 293 292 291 290 290 290
273 273 273 273 276 278 276 276 277 280 284 287 288 289 290 291 290 285 282 280 279 281 279 279 278 278 279 280 282 289 292 293 292 292 290 290 290 289
270 272 274 274 276 278 275 275 274 277 279 281 282 284 288 287 290 289 284 281 280 280 280 278 278 278 276 280 280 282 286 292 292 291 290 290 290 286
268 269 271 274 275 276 278 276 276 279 280 281 281 281 281 282 284 286 287 284 281 280 280 280 281 278 278 275 279 280 283 285 287 288 290 290 290 287
268 269 269 272 274 275 274 276 278 279 279 279 280 280 281 280 282 284 286 286 285 284 284 283 279 280 278 275 275 279 282 284 285 285 285 288 289 288
269 270 274 275 275 275 274 274 273 272 274 275 278 280 281 282 282 282 284 286 285 285 285 283 282 281 280 278 275 276 278 281 283 283 283 284 284 283
271 269 270 273 274 274 272 272 272 272 272 273 278 281 283 281 281 283 282 283 282 282 283 282 282 282 279 280 278 275 278 276 280 281 282 281 282 281
273 273 271 267 265 265 267 269 270 271 270 275 276 280 281 281 281 282 281 281 279 279 277 278 281 281 281 279 275 276 276 277 278 279 278 276 277 278
273 271 270 270 269 269 268 268 269 270 272 276 277 277 277 279 280 280 281 280 277 278 277 273 276 274 273 273 279 275 276 276 276 277 276 274 273 276
268 267 267 268 269 269 268 268 268 270 273 274 276 275 276 278 279 279 278 278 276 277 274 273 274 274 271 270 271 279 275 274 274 274 275 274 273 274
263 264 265 266 267 268 269 268 269 270 272 273 275 275 278 279 278 278 277 276 276 276 273 272 273 275 274 272 269 272 278 274 273 272 272 272 274 277
261 262 263 263 264 265 268 268 268 268 270 270 273 275 277 279 278 278 277 276 275 275 271 270 273 276 275 272 269 269 273 277 275 273 272 270 268 269
260 261 262 262 265 267 269 270 270 270 270 271 273 276 277 277 277 277 275 274 274 274 272 272 273 271 271 271 270 269 270 272 275 275 275 272 268 265
259 259 260 262 263 265 266 269 273 272 273 273 275 277 276 275 277 276 275 274 274 272 270 269 270 271 270 271 269 268 268 268 269 268 268 273 272 272

GFSNE_sfc_thetae_036.txt.gz
Theta_e
280 282 282 284 286 286 286 286 285 283 284 287 284 285 285 285 286 286 286 291 295 298 302 308 308 307 308 308 308 307 307 308 309 309 308 308 307 307
278 278 279 281 282 284 284 285 284 283 282 285 287 286 286 286 286 286 286 290 292 295 299 303 306 306 306 306 306 305 306 307 308 308 307 307 307 306
277 277 278 279 279 280 281 283 282 281 280 282 285 286 286 286 287 285 285 286 287 292 295 298 302 304 305 305 304 304 304 305 306 307 306 306 305 306
276 276 276 279 278 278 279 279 280 281 281 279 282 283 284 286 286 285 285 285 285 289 293 295 298 300 302 303 303 302 302 303 304 306 305 305 305 305
276 276 276 277 277 277 277 278 278 280 280 280 279 282 282 284 284 284 284 285 285 288 292 293 294 298 300 301 301 300 300 300 301 302 303 304 304 303
277 277 277 276 276 276 277 277 278 278 278 278 279 279 280 282 281 282 282 283 284 285 287 289 291 293 297 299 299 298 298 299 300 300 300 301 302 302
275 276 276 277 279 279 278 277 277 276 277 278 278 279 279 279 279 281 281 283 284 284 285 284 285 287 288 295 295 296 297 298 299 299 299 299 299 300
271 272 273 273 275 278 279 280 280 277 276 276 277 277 278 280 281 281 281 281 279 283 283 283 283 283 285 288 293 296 297 297 297 298 298 298 298 298
270 271 271 272 272 272 274 276 277 278 278 276 274 275 276 278 280 280 281 281 281 283 281 281 282 281 283 286 291 294 296 296 297 297 297 297 297 297
270 270 270 270 271 272 272 272 273 274 274 275 275 275 276 277 278 279 279 280 283 283 281 279 282 282 282 283 289 291 294 295 296 296 296 297 296 296
269 270 270 270 272 274 272 271 272 273 276 277 278 279 281 282 281 279 277 278 278 280 282 280 282 281 281 282 283 289 292 294 295 295 296 296 296 295
269 270 272 272 274 275 273 271 269 270 271 271 272 274 276 275 278 277 277 275 276 278 282 278 280 276 275 280 282 283 286 291 293 294 295 295 295 293
269 270 271 274 275 276 276 273 272 274 273 273 273 273 273 273 274 275 277 277 276 277 283 281 281 279 279 275 277 281 282 284 287 289 294 295 295 294
270 271 271 274 276 277 277 278 279 279 274 271 270 269 270 270 272 273 275 276 277 279 281 284 281 280 278 277 276 277 280 281 284 285 287 291 294 294
272 274 276 277 277 276 276 277 275 273 271 270 269 270 271 272 272 272 273 273 273 276 280 282 283 282 280 278 278 274 275 278 281 283 285 286 288 291
273 273 272 272 272 272 271 272 271 271 271 270 269 271 271 271 270 271 270 270 270 272 276 282 283 283 281 280 280 271 277 275 279 281 283 285 287 289
270 265 262 262 263 264 265 266 267 268 268 268 268 268 268 269 269 270 270 269 268 269 270 280 283 284 283 282 280 280 277 277 278 279 281 281 284 286
261 257 258 259 260 261 261 262 264 264 265 266 267 269 268 268 268 269 270 270 268 269 271 278 280 281 281 282 284 280 278 277 278 279 281 280 280 284
254 256 257 258 259 260 260 261 261 263 265 266 266 267 269 269 269 269 270 271 271 272 274 279 279 279 276 274 270 284 280 279 278 278 280 280 279 281
250 255 256 257 258 259 259 260 261 263 264 265 266 268 269 268 268 269 269 270 274 277 278 278 278 278 276 275 272 269 283 278 277 276 278 280 281 284
256 257 258 258 259 260 260 260 261 262 263 264 266 268 269 268 268 269 270 271 274 276 275 274 276 279 280 276 273 267 269 282 280 277 278 277 275 274
256 257 258 259 259 260 261 261 261 262 263 264 265 266 269 269 268 269 270 271 273 275 276 275 274 276 276 275 273 265 269 276 281 281 281 279 273 270
256 257 258 259 259 260 261 261 262 263 263 264 265 265 267 267 271 271 273 274 274 274 275 272 273 275 274 274 271 268 270 273 273 271 272 278 276 276

GFSNE_sfc_thetae_042.txt.gz
Theta_e
284 284 284 285 285 285 285 284 282 279 281 285 286 292 294 292 291 292 291 293 293 294 296 298 299 301 302 303 306 309 313 315 314 312 311 311 312 312
282 282 282 283 283 284 284 284 284 281 280 284 285 288 289 288 290 289 291 291 292 293 293 294 296 298 300 301 303 307 311 312 312 311 311 311 311 311
282 281 281 282 281 282 282 282 282 282 280 282 285 286 286 286 288 289 290 290 290 291 292 293 294 295 297 299 300 303 308 310 310 311 310 310 310 310
279 279 279 279 279 280 281 280 280 281 280 278 281 282 283 285 286 286 287 288 288 290 291 292 293 293 295 297 298 300 302 306 306 308 309 309 309 310
278 277 277 277 277 277 277 277 278 279 279 279 279 281 282 283 283 284 285 287 288 289 290 290 291 292 293 294 296 298 298 300 303 304 305 306 307 308
277 277 276 276 275 275 275 275 276 277 277 277 277 278 280 281 282 281 282 285 285 287 289 289 290 291 291 292 293 294 296 298 300 302 302 302 303 304
276 276 275 275 275 275 275 275 274 274 274 274 274 275 276 277 277 279 279 281 282 284 285 288 289 290 291 291 291 292 293 296 297 298 300 301 301 301
274 274 274 274 274 275 275 276 276 274 273 273 273 272 273 275 277 276 277 276 275 282 283 282 287 287 289 290 291 291 291 293 295 296 298 300 300 300
273 273 273 273 273 273 274 275 275 276 277 275 273 273 273 274 275 274 275 275 275 279 279 278 281 281 284 286 289 290 290 291 293 295 296 298 299 299
273 273 273 273 273 273 273 274 274 275 276 276 276 276 276 277 277 276 277 277 278 279 279 275 280 280 284 286 287 288 289 291 292 293 294 296 297 298
273 274 273 273 275 277 276 274 275 275 278 279 279 280 280 280 280 278 276 275 274 275 278 276 277 277 279 281 284 287 288 289 290 292 293 294 295 296
274 274 276 275 277 278 276 276 274 276 276 277 277 278 279 278 279 278 277 273 273 273 277 275 275 276 274 280 281 284 286 288 290 290 292 293 294 294
274 274 275 276 277 278 277 275 274 276 275 275 275 276 277 277 278 278 277 276 274 273 277 276 275 275 275 274 277 281 282 284 287 288 289 291 293 293
273 274 275 276 275 275 274 274 275 274 272 272 272 272 273 274 276 277 277 277 277 276 277 277 274 274 273 272 272 276 279 282 286 286 287 288 291 293
275 275 274 272 272 271 271 271 270 269 269 268 268 269 271 272 273 274 275 276 276 276 277 277 275 275 274 272 271 273 274 277 283 285 286 286 287 290
274 270 270 269 269 269 267 268 267 267 266 266 267 268 270 270 270 271 271 272 272 272 275 276 275 274 272 273 273 272 274 273 279 284 285 286 287 289
271 268 266 265 265 266 266 266 266 266 266 266 266 266 267 268 269 271 270 270 270 270 271 274 276 276 275 273 271 272 273 274 276 280 283 283 285 287
268 264 263 264 264 264 264 264 265 265 266 265 265 266 266 267 267 268 270 270 269 270 271 273 273 273 274 275 276 272 273 273 276 280 282 281 282 286
264 263 262 263 263 263 264 264 264 265 265 265 265 266 266 266 266 267 268 269 270 271 271 273 273 272 270 270 275 279 274 275 277 280 282 282 282 284
261 261 261 262 262 262 263 263 263 264 264 265 265 265 266 266 266 266 268 268 269 270 271 272 272 272 271 274 273 277 281 277 278 280 281 282 284 285
261 260 261 261 261 262 262 262 263 263 263 264 265 265 266 267 266 266 267 267 268 269 270 270 273 275 276 278 276 276 279 282 283 281 281 280 280 281
259 259 260 260 260 260 261 261 262 262 263 264 264 265 267 267 266 266 266 267 268 269 270 273 276 276 276 276 276 278 277 280 281 280 279 282 280 277
259 259 259 259 259 259 260 260 261 262 262 263 264 265 266 265 266 266 267 267 268 269 270 272 274 277 276 277 276 276 275 277 276 274 272 278 279 279

GFSNE_sfc_thetae_045.txt.gz
Theta_e
285 285 284 285 285 285 285 284 281 277 278 283 284 288 288 288 289 288 288 290 292 293 294 295 296 296 297 299 302 304 306 307 309 313 316 314 313 313
283 283 283 283 283 284 284 283 282 280 277 282 283 285 286 286 287 287 287 289 291 291 292 293 293 294 296 297 298 301 303 305 307 311 315 315 314 312
282 281 281 282 281 281 281 282 281 281 277 279 282 283 283 283 284 285 286 286 286 290 290 291 292 293 294 295 296 297 300 302 304 307 311 314 312 312
280 279 279 279 278 279 279 278 278 278 277 275 278 278 279 281 282 281 283 285 285 288 290 291 291 292 292 293 294 295 296 298 300 302 304 308 311 311
279 278 277 277 277 277 276 276 276 276 276 275 275 277 278 279 279 281 281 282 284 287 289 289 290 290 291 292 292 293 294 296 297 299 300 302 307 308
278 278 277 276 276 275 274 275 275 275 275 274 273 274 275 276 277 276 277 279 279 282 283 284 286 287 288 291 292 292 292 293 294 297 298 299 302 304
277 277 276 276 276 276 275 274 274 273 273 272 272 272 272 273 273 275 275 276 277 278 278 279 280 282 282 287 289 291 292 292 293 294 295 297 298 300
275 275 275 276 276 276 277 277 276 273 272 271 272 272 273 273 274 274 274 273 271 277 276 276 279 279 280 281 285 286 288 290 291 291 292 295 296 297
275 274 274 275 275 274 276 277 277 277 278 275 273 273 273 274 274 273 273 273 273 276 276 274 278 277 280 282 285 286 287 288 288 289 291 291 294 295
275 274 274 274 275 275 274 275 276 276 276 276 276 276 276 276 276 275 275 275 276 277 278 273 276 275 278 279 283 284 285 286 287 289 289 291 292 293
275 275 275 274 276 278 276 274 275 276 279 279 280 280 281 281 281 278 275 273 272 273 277 274 275 275 276 277 278 282 284 285 286 287 288 289 291 291
275 275 277 277 278 278 276 274 271 272 273 273 275 276 277 277 279 277 276 272 272 271 275 273 274 274 271 275 277 278 278 280 283 285 287 288 290 287
274 274 275 277 277 278 277 273 271 274 273 270 270 271 273 274 275 276 277 276 273 272 276 276 273 273 272 271 274 276 276 277 277 278 283 285 288 288
273 274 275 277 276 276 274 274 274 272 268 268 267 268 269 270 272 273 274 274 275 274 276 276 273 272 271 270 270 274 275 276 276 275 276 279 283 287
275 275 277 274 274 272 272 272 270 268 266 265 265 266 269 270 271 271 272 273 273 274 275 275 274 273 272 270 270 271 272 273 275 275 275 275 278 283
276 272 271 272 271 270 268 269 268 267 266 266 266 267 268 267 267 269 268 269 269 269 273 274 274 274 271 271 271 270 272 270 273 274 275 275 278 282
273 268 267 267 266 266 266 266 267 267 266 266 265 265 265 266 266 268 268 267 266 267 268 271 274 274 274 273 270 271 271 272 273 274 274 273 275 279
268 265 265 265 264 265 264 264 265 265 266 265 264 265 265 265 265 266 267 266 266 267 268 270 271 271 271 272 276 272 272 272 274 274 274 271 273 278
264 264 263 263 263 264 264 264 263 265 265 264 264 264 264 264 265 265 265 266 265 266 267 269 270 270 267 266 271 278 274 275 275 273 273 272 273 277
262 261 261 262 262 262 262 262 263 263 263 263 263 263 263 264 264 265 265 264 265 265 265 267 269 270 269 268 269 273 279 276 277 274 273 276 278 284
262 261 261 261 261 261 261 261 261 261 262 261 262 263 263 264 264 265 264 264 265 265 265 266 269 272 273 274 271 271 275 282 281 277 276 276 276 279
261 260 260 260 260 259 259 259 259 260 260 261 261 262 263 263 263 264 264 264 264 265 266 268 270 271 272 273 272 273 276 277 278 278 279 280 278 275
260 259 259 259 259 258 258 258 258 259 259 260 261 261 262 261 263 265 265 265 265 265 266 267 268 270 272 273 274 274 274 273 272 271 271 278 280 280